Hourly Weather Kitunkino

Today, 21 October, Wednesday

Time Temperature Precipitation Wind Pressure Humidity
00:00 0°C° 0.3 mm 3 mps 743 mmHg 95%
01:00 0°C° 0 mm 3 mps 743 mmHg 93%
02:00 0°C° 0 mm 3 mps 744 mmHg 91%
03:00 -1°C° 0 mm 3 mps 744 mmHg 91%
04:00 -2°C° 0 mm 4 mps 744 mmHg 91%
05:00 -2°C° 0 mm 4 mps 744 mmHg 92%
06:00 -2°C° 0 mm 5 mps 744 mmHg 93%
07:00 -2°C° 0.1 mm 5 mps 744 mmHg 86%
08:00 -2°C° 0.1 mm 6 mps 744 mmHg 79%
09:00 -2°C° 0 mm 7 mps 745 mmHg 73%
10:00 -2°C° 0 mm 6 mps 745 mmHg 71%
11:00 -2°C° 0 mm 6 mps 745 mmHg 70%
12:00 -2°C° 0 mm 6 mps 745 mmHg 68%
13:00 -2°C° 0 mm 6 mps 746 mmHg 68%
14:00 -2°C° 0 mm 6 mps 746 mmHg 68%
15:00 -2°C° 0 mm 6 mps 746 mmHg 69%
16:00 -2°C° 0 mm 6 mps 746 mmHg 73%
17:00 -3°C° 0 mm 6 mps 746 mmHg 76%
18:00 -3°C° 0 mm 6 mps 747 mmHg 80%
19:00 -4°C° 0 mm 5 mps 747 mmHg 81%
20:00 -4°C° 0 mm 5 mps 747 mmHg 82%
21:00 -4°C° 0 mm 5 mps 747 mmHg 83%
22:00 -3°C° 0 mm 4 mps 747 mmHg 84%
23:00 -3°C° 0 mm 4 mps 747 mmHg 85%

Tomorrow, 22 October, Thursday

Time Temperature Precipitation Wind Pressure Humidity
00:00 -3°C° 0 mm 4 mps 747 mmHg 86%
01:00 -4°C° 0 mm 4 mps 748 mmHg 86%
02:00 -4°C° 0 mm 4 mps 748 mmHg 87%
03:00 -4°C° 0 mm 4 mps 748 mmHg 88%
04:00 -4°C° 0 mm 4 mps 748 mmHg 88%
05:00 -4°C° 0 mm 4 mps 748 mmHg 88%
06:00 -4°C° 0 mm 4 mps 748 mmHg 87%
07:00 -4°C° 0 mm 4 mps 749 mmHg 83%
08:00 -3°C° 0 mm 4 mps 749 mmHg 80%
09:00 -2°C° 0 mm 4 mps 749 mmHg 76%
10:00 -2°C° 0 mm 4 mps 749 mmHg 73%
11:00 -1°C° 0 mm 4 mps 749 mmHg 70%
12:00 -1°C° 0 mm 4 mps 749 mmHg 67%
13:00 -1°C° 0 mm 4 mps 749 mmHg 67%
14:00 -1°C° 0 mm 4 mps 750 mmHg 66%
15:00 +1°C° 0 mm 3 mps 750 mmHg 66%
16:00 0°C° 0 mm 3 mps 750 mmHg 68%
17:00 +1°C° 0 mm 2 mps 750 mmHg 70%
18:00 +1°C° 0 mm 1 mps 750 mmHg 73%
19:00 +1°C° 0 mm 1 mps 750 mmHg 74%
20:00 +1°C° 0 mm 1 mps 750 mmHg 75%
21:00 0°C° 0 mm 0 mps 750 mmHg 77%
22:00 0°C° 0 mm 1 mps 750 mmHg 79%
23:00 0°C° 0 mm 1 mps 749 mmHg 81%

Day after tomorrow, 23 October, Friday

Time Temperature Precipitation Wind Pressure Humidity
00:00 -1°C° 0 mm 1 mps 749 mmHg 83%
01:00 -3°C° 0 mm 2 mps 749 mmHg 83%
02:00 -3°C° 0 mm 2 mps 749 mmHg 82%
03:00 -3°C° 0 mm 2 mps 748 mmHg 82%
04:00 -2°C° 0 mm 3 mps 748 mmHg 82%
05:00 -2°C° 0 mm 3 mps 747 mmHg 82%
06:00 -2°C° 0 mm 4 mps 747 mmHg 82%
07:00 -2°C° 0 mm 4 mps 746 mmHg 86%
08:00 -1°C° 0 mm 5 mps 746 mmHg 89%
09:00 -1°C° 0 mm 5 mps 745 mmHg 92%
10:00 -2°C° 0.3 mm 6 mps 744 mmHg 93%
11:00 -2°C° 0.3 mm 6 mps 744 mmHg 94%
12:00 -2°C° 0.3 mm 6 mps 743 mmHg 95%
13:00 -1°C° 0.5 mm 6 mps 743 mmHg 95%
14:00 -1°C° 0.5 mm 6 mps 742 mmHg 94%
15:00 +1°C° 0.5 mm 6 mps 741 mmHg 94%
16:00 +1°C° 0.8 mm 6 mps 741 mmHg 95%
17:00 +1°C° 0.8 mm 5 mps 740 mmHg 95%
18:00 +1°C° 0.8 mm 5 mps 740 mmHg 96%
19:00 +2°C° 0.6 mm 5 mps 739 mmHg 96%
20:00 +3°C° 0.6 mm 4 mps 739 mmHg 97%
21:00 +3°C° 0.6 mm 4 mps 739 mmHg 98%
22:00 +4°C° 0 mm 3 mps 738 mmHg 97%
23:00 +4°C° 0 mm 3 mps 738 mmHg 97%

24 October, Saturday

Time Temperature Precipitation Wind Pressure Humidity
00:00 +4°C° 0 mm 3 mps 738 mmHg 97%
01:00 +5°C° 0.1 mm 3 mps 738 mmHg 97%
02:00 +5°C° 0.1 mm 4 mps 737 mmHg 96%
03:00 +5°C° 0.1 mm 4 mps 737 mmHg 96%
04:00 +5°C° 1 mm 3 mps 737 mmHg 97%
05:00 +5°C° 1 mm 3 mps 736 mmHg 97%
06:00 +5°C° 1 mm 3 mps 736 mmHg 98%
07:00 +7°C° 0.2 mm 3 mps 736 mmHg 98%
08:00 +7°C° 0.2 mm 3 mps 736 mmHg 97%
09:00 +7°C° 0.2 mm 3 mps 735 mmHg 97%
10:00 +7°C° 0 mm 4 mps 736 mmHg 95%
11:00 +8°C° 0 mm 4 mps 736 mmHg 92%
12:00 +8°C° 0 mm 4 mps 736 mmHg 90%
13:00 +8°C° 0.1 mm 4 mps 737 mmHg 86%
14:00 +8°C° 0.1 mm 5 mps 737 mmHg 83%
15:00 +8°C° 0.1 mm 5 mps 738 mmHg 79%
16:00 +8°C° 0 mm 5 mps 738 mmHg 81%
17:00 +7°C° 0 mm 4 mps 739 mmHg 83%
18:00 +7°C° 0 mm 4 mps 739 mmHg 85%
19:00 +7°C° 0 mm 4 mps 740 mmHg 86%
20:00 +7°C° 0 mm 4 mps 740 mmHg 87%
21:00 +6°C° 0 mm 4 mps 741 mmHg 87%
22:00 +5°C° 0 mm 4 mps 741 mmHg 88%
23:00 +4°C° 0 mm 3 mps 742 mmHg 88%

25 October, Sunday

Time Temperature Precipitation Wind Pressure Humidity
00:00 +3°C° 0 mm 3 mps 742 mmHg 89%
01:00 +3°C° 0 mm 3 mps 742 mmHg 90%
02:00 +3°C° 0 mm 2 mps 742 mmHg 91%
03:00 +3°C° 0 mm 2 mps 743 mmHg 91%
04:00 +3°C° 0 mm 2 mps 743 mmHg 90%
05:00 +3°C° 0 mm 2 mps 743 mmHg 89%
06:00 +4°C° 0 mm 1 mps 743 mmHg 88%
07:00 +5°C° 0 mm 1 mps 743 mmHg 85%
08:00 +6°C° 0 mm 1 mps 744 mmHg 82%
09:00 +5°C° 0 mm 0 mps 744 mmHg 80%
10:00 +6°C° 0 mm 0 mps 744 mmHg 77%
11:00 +6°C° 0 mm 0 mps 744 mmHg 75%
12:00 +6°C° 0 mm 0 mps 744 mmHg 72%
13:00 +7°C° 0 mm 1 mps 744 mmHg 74%
14:00 +7°C° 0 mm 1 mps 744 mmHg 76%
15:00 +7°C° 0 mm 1 mps 744 mmHg 78%
16:00 +7°C° 0.2 mm 1 mps 744 mmHg 81%
17:00 +6°C° 0.2 mm 1 mps 744 mmHg 84%
18:00 +6°C° 0.2 mm 1 mps 743 mmHg 87%
19:00 +5°C° 0.5 mm 2 mps 743 mmHg 87%
20:00 +4°C° 0.5 mm 3 mps 743 mmHg 88%
21:00 +3°C° 0.5 mm 3 mps 743 mmHg 88%
22:00 +3°C° 0.3 mm 3 mps 743 mmHg 88%
23:00 +3°C° 0.3 mm 3 mps 743 mmHg 88%

26 October, Monday

Time Temperature Precipitation Wind Pressure Humidity
00:00 +3°C° 0.3 mm 3 mps 743 mmHg 87%
01:00 +1°C° 0 mm 4 mps 743 mmHg 87%
02:00 +1°C° 0 mm 4 mps 743 mmHg 86%
03:00 +1°C° 0 mm 4 mps 743 mmHg 85%
04:00 0°C° 0 mm 4 mps 744 mmHg 85%
05:00 -1°C° 0 mm 4 mps 744 mmHg 84%
06:00 -1°C° 0 mm 4 mps 744 mmHg 84%
07:00 -1°C° 0 mm 4 mps 745 mmHg 82%
08:00 -1°C° 0 mm 4 mps 745 mmHg 80%
09:00 -1°C° 0 mm 5 mps 745 mmHg 79%
10:00 0°C° 0 mm 5 mps 746 mmHg 74%
11:00 +1°C° 0 mm 5 mps 746 mmHg 70%
12:00 +2°C° 0 mm 5 mps 746 mmHg 66%
13:00 +1°C° 0 mm 5 mps 747 mmHg 67%
14:00 +1°C° 0 mm 5 mps 747 mmHg 69%
15:00 +1°C° 0 mm 5 mps 747 mmHg 70%
16:00 0°C° 0 mm 4 mps 748 mmHg 73%
17:00 -1°C° 0 mm 4 mps 748 mmHg 77%
18:00 -2°C° 0 mm 4 mps 749 mmHg 80%
19:00 -1°C° 0 mm 4 mps 749 mmHg 79%
20:00 -1°C° 0 mm 4 mps 750 mmHg 78%
21:00 -1°C° 0 mm 4 mps 750 mmHg 78%
22:00 -1°C° 0 mm 5 mps 750 mmHg 75%
23:00 -2°C° 0 mm 5 mps 751 mmHg 72%

27 October, Tuesday

Time Temperature Precipitation Wind Pressure Humidity
00:00 -2°C° 0 mm 5 mps 751 mmHg 70%
01:00 -2°C° 0 mm 5 mps 751 mmHg 73%
02:00 -3°C° 0 mm 4 mps 752 mmHg 75%
03:00 -3°C° 0 mm 4 mps 752 mmHg 78%
04:00 -4°C° 0 mm 4 mps 753 mmHg 80%
05:00 -4°C° 0 mm 4 mps 753 mmHg 81%
06:00 -4°C° 0 mm 4 mps 754 mmHg 83%
07:00 -5°C° 0 mm 5 mps 754 mmHg 81%
08:00 -5°C° 0 mm 5 mps 754 mmHg 78%
09:00 -4°C° 0 mm 5 mps 755 mmHg 76%
10:00 -4°C° 0 mm 5 mps 755 mmHg 73%
11:00 -2°C° 0 mm 5 mps 755 mmHg 70%
12:00 -1°C° 0 mm 5 mps 756 mmHg 67%
13:00 -1°C° 0 mm 4 mps 756 mmHg 67%
14:00 -1°C° 0 mm 4 mps 756 mmHg 67%
15:00 -1°C° 0 mm 4 mps 756 mmHg 68%
16:00 -1°C° 0 mm 4 mps 756 mmHg 72%
17:00 -1°C° 0 mm 3 mps 757 mmHg 76%
18:00 -2°C° 0 mm 3 mps 757 mmHg 80%
19:00 -2°C° 0 mm 3 mps 757 mmHg 81%
20:00 -3°C° 0 mm 2 mps 758 mmHg 82%
21:00 -3°C° 0 mm 2 mps 758 mmHg 82%
22:00 -3°C° 0 mm 2 mps 758 mmHg 82%
23:00 -3°C° 0 mm 2 mps 758 mmHg 82%
Show more